This is the latest recevied weather packets stored in our database for station/object K7ZQU-7. If no packets are shown the sender has not sent any weather packets the latest 10 day(s).
| Time | Temp. | Humidity | Pressure | Rain* | Wind** | Luminosity | Snow |
|---|---|---|---|---|---|---|---|
| 1777929852 | 20.56° C | 35% | 1012.5 hPa | 0 mm | 1.34 m/s, 305° | - | - |
| 1777929554 | 20.56° C | 34% | 1012.6 hPa | 0 mm | 1.79 m/s, 318° | - | - |
| 1777929255 | 21.11° C | 34% | 1012.6 hPa | 0 mm | 2.68 m/s, 285° | - | - |
| 1777928956 | 21.11° C | 35% | 1012.7 hPa | 0 mm | 1.79 m/s, 291° | - | - |
| 1777928654 | 21.11° C | 34% | 1012.6 hPa | 0 mm | 3.58 m/s, 339° | - | - |
| 1777928355 | 21.11° C | 33% | 1012.5 hPa | 0 mm | 0.89 m/s, 25° | - | - |
| 1777928057 | 21.11° C | 33% | 1012.6 hPa | 0 mm | 2.24 m/s, 330° | - | - |
| 1777927758 | 21.11° C | 33% | 1012.6 hPa | 0 mm | 3.13 m/s, 305° | - | - |
| 1777927459 | 21.11° C | 33% | 1012.6 hPa | 0 mm | 3.13 m/s, 333° | - | - |
| 1777926261 | 21.11° C | 33% | 1012.6 hPa | 0 mm | 2.68 m/s, 311° | - | - |
| 1777925962 | 20.56° C | 33% | 1012.6 hPa | 0 mm | 2.24 m/s, 287° | - | - |
| 1777925362 | 20.56° C | 30% | 1012.6 hPa | 0 mm | 1.34 m/s, 332° | - | - |
| 1777924465 | 21.11° C | 28% | 1012.6 hPa | 0 mm | 1.79 m/s, 31° | - | - |
| 1777924163 | 21.11° C | 28% | 1012.7 hPa | 0 mm | 3.58 m/s, 10° | - | - |
| 1777923864 | 20.56° C | 27% | 1012.6 hPa | 0 mm | 1.79 m/s, 308° | - | - |
| 1777923566 | 20.56° C | 28% | 1012.7 hPa | 0 mm | 2.24 m/s, 84° | - | - |
| 1777923267 | 20.56° C | 28% | 1012.7 hPa | 0 mm | 2.68 m/s, 308° | - | - |
| 1777922666 | 20.56° C | 28% | 1012.6 hPa | 0 mm | 1.79 m/s, 10° | - | - |
| 1777922367 | 20.56° C | 29% | 1012.7 hPa | 0 mm | 2.68 m/s, 318° | - | - |
| 1777922068 | 20.56° C | 27% | 1012.7 hPa | 0 mm | 1.34 m/s, 32° | - | - |
| 1777921770 | 20.56° C | 30% | 1012.7 hPa | 0 mm | 1.34 m/s, 318° | - | - |
| 1777921484 | 20.56° C | 28% | 1012.7 hPa | 0 mm | 1.79 m/s, 346° | - | - |
| 1777920870 | 20° C | 30% | 1012.6 hPa | 0 mm | 1.79 m/s, 329° | - | - |
| 1777920571 | 20° C | 31% | 1012.7 hPa | 0 mm | 1.79 m/s, 41° | - | - |
| 1777919974 | 20° C | 28% | 1012.7 hPa | 0 mm | 1.79 m/s, 280° | - | - |
* Rain latest hour (hover to see other rain measurements)
** Current wind speed in m/s (hover to see current wind gust speed)